Location: Kitchener-Waterloo
(43.4500°N, 80.5000°W)
Time: 23:53:52
(UTC-04:00)

Amateur Radio Satellites - All Passes

Search period start: 19 September 2014 23:23
Search period end: 20 September 2014 23:23
Location: Kitchener-Waterloo, 43.4500°N, 80.5000°W

Satellite Date Start Highest point End Downlink Frequencies (MHz)
Time Altitude Azimuth
UOSAT-12 19 Sep 23:40:48 23:43:16 14° 108° (ESE) 23:45:45 437.025 FM, 437.400 FM
SO-50 19 Sep 23:41:44 23:46:09 58° 308° (NW) 23:50:43 436.795 FM
Sapphire 19 Sep 23:54:47 23:56:44 12° 258° (WSW) 23:58:42 437.095 MHz 1200 baud AX-25 AFSK
FUNcube-1 20 Sep 00:27:04 00:28:09 11° 273° (W) 00:29:16 145.950 - 145.970 MHz USB
KITSAT 1 20 Sep 00:34:23 00:38:19 14° 355° (N) 00:42:15 435.175 FM
Saudisat 1A 20 Sep 00:55:33 00:58:17 16° 37° (NE) 01:01:01 436.775 MHz
UOSAT-12 20 Sep 01:18:11 01:22:48 72° 306° (NW) 01:27:32 437.025 FM, 437.400 FM
SO-50 20 Sep 01:25:48 01:27:44 12° 329° (NNW) 01:29:42 436.795 FM
Oscar 19 20 Sep 01:31:07 01:31:31 10° 87° (E) 01:31:56 437.125 CW, 437.150 USB
Oscar 16 20 Sep 02:06:43 02:10:57 25° 94° (E) 02:15:08 437.025 USB, Beacon 2401.1428
AO-Echo 20 Sep 02:18:23 02:21:05 15° 91° (E) 02:23:50 ?
KITSAT 1 20 Sep 02:31:56 02:37:35 20° 25° (NNE) 02:43:12 435.175 FM
Saudisat 1A 20 Sep 02:34:03 02:38:30 89° 236° (WSW) 02:42:54 436.775 MHz
Gurwin Techsat 1B 20 Sep 02:43:29 02:44:23 10° 87° (E) 02:45:17 435.225 FM
Oscar 10/S400 20 Sep 02:44:28 03:51:31 32° 233° (SW) 07:46:17 145.825 - 145.975 CW/USB, Beacon 145.810 USB
ITAMSAT 1 20 Sep 02:50:37 02:54:59 26° 95° (E) 02:59:20 435.822 SSB
Uribyol 2 20 Sep 02:54:35 02:59:12 31° 96° (E) 03:03:46 436.500 FM
UOSAT-12 20 Sep 03:01:09 03:03:49 15° 327° (NNW) 03:06:29 437.025 FM, 437.400 FM
Oscar 19 20 Sep 03:06:25 03:11:38 85° 104° (ESE) 03:16:47 437.125 CW, 437.150 USB
ISS 20 Sep 03:14:25 03:17:36 45° 141° (SE) 03:20:49 145.800 FM
RS-15 20 Sep 03:17:28 03:25:02 22° 100° (E) 03:32:31 29.354 - 29.394 USB, Beacon 29.352 USB
TMSAT-1 20 Sep 03:18:05 03:21:34 18° 91° (E) 03:25:02 436.925 FM
AO-27 20 Sep 03:25:13 03:30:21 56° 101° (E) 03:35:28 436.795 MHz FM
OPAL 20 Sep 03:39:01 03:42:03 16° 56° (ENE) 03:45:06 ?
JAS-1B 20 Sep 03:42:01 03:47:50 81° 104° (ESE) 03:53:33 435.800 - 435.900 CW/SSB
Oscar 16 20 Sep 03:45:35 03:50:27 43° 291° (WNW) 03:55:17 437.025 USB, Beacon 2401.1428
AO-Echo 20 Sep 03:55:29 04:00:16 65° 287° (WNW) 04:05:12 ?
Gurwin Techsat 1B 20 Sep 04:19:47 04:25:08 84° 104° (ESE) 04:30:27 435.225 FM
KITSAT 1 20 Sep 04:27:00 04:34:57 57° 51° (NE) 04:42:51 435.175 FM
ITAMSAT 1 20 Sep 04:29:44 04:34:36 41° 292° (WNW) 04:39:27 435.822 SSB
AO-7 20 Sep 04:30:59 04:37:19 24° 92° (E) 04:43:35 29.400 - 29.500 MHz
Uribyol 2 20 Sep 04:33:57 04:38:41 36° 293° (WNW) 04:43:24 436.500 FM
Oscar 19 20 Sep 04:47:38 04:50:15 14° 302° (WNW) 04:52:52 437.125 CW, 437.150 USB
ISS 20 Sep 04:51:21 04:54:24 33° 339° (NNW) 04:57:28 145.800 FM
TMSAT-1 20 Sep 04:56:40 05:01:56 63° 288° (WNW) 05:07:09 436.925 FM
AO-27 20 Sep 05:05:38 05:09:27 21° 298° (WNW) 05:13:16 436.795 MHz FM
Uosat F 20 Sep 05:06:12 05:10:36 29° 96° (E) 05:14:57 435.120 FM
OPAL 20 Sep 05:15:04 05:20:16 80° 254° (WSW) 05:25:31 ?
RS-15 20 Sep 05:24:40 05:35:44 86° 122° (ESE) 05:46:42 29.354 - 29.394 USB, Beacon 29.352 USB
JAS-1B 20 Sep 05:34:35 05:37:44 15° 305° (NW) 05:40:50 435.800 - 435.900 CW/SSB
JAS-2 20 Sep 05:44:54 05:48:11 15° 90° (E) 05:51:37 435.800 - 435.900 CW/SSB, 435.910 FM
STRAND 1 20 Sep 05:58:54 06:02:14 18° 61° (ENE) 06:05:34 ?
Gurwin Techsat 1B 20 Sep 06:01:32 06:04:23 15° 302° (WNW) 06:07:15 435.225 FM
AO-7 20 Sep 06:22:35 06:30:53 78° 291° (WNW) 06:39:09 29.400 - 29.500 MHz
KITSAT 1 20 Sep 06:22:52 06:30:02 37° 251° (WSW) 06:37:10 435.175 FM
ISS 20 Sep 06:29:18 06:31:49 19° 359° (N) 06:34:20 145.800 FM
SO-50 20 Sep 06:32:02 06:36:08 27° 43° (NE) 06:40:15 436.795 FM
Uosat F 20 Sep 06:44:52 06:49:23 35° 293° (WNW) 06:53:54 435.120 FM
JAS-2 20 Sep 07:27:47 07:33:48 90° 105° (ESE) 07:40:38 435.800 - 435.900 CW/SSB, 435.910 FM
Hamsat 20 Sep 07:32:24 07:36:40 74° 285° (WNW) 07:40:51 145.90 MHz
STRAND 1 20 Sep 07:35:52 07:40:54 64° 258° (WSW) 07:45:59 ?
RS-15 20 Sep 07:39:42 07:49:29 36° 329° (NNW) 07:59:21 29.354 - 29.394 USB, Beacon 29.352 USB
ISS 20 Sep 08:06:14 08:09:15 31° 20° (NNE) 08:12:15 145.800 FM
UOSAT-12 20 Sep 08:07:19 08:11:02 22° 40° (NE) 08:14:43 437.025 FM, 437.400 FM
SO-50 20 Sep 08:12:17 08:16:55 48° 242° (WSW) 08:21:35 436.795 FM
AO-7 20 Sep 08:16:56 08:22:24 20° 312° (NW) 08:27:53 29.400 - 29.500 MHz
MaSat-1 20 Sep 08:27:14 08:31:50 37° 109° (ESE) 08:36:22 437.345 MHz
SO-67 20 Sep 08:40:09 08:43:37 79° 282° (WNW) 08:47:03 435.3500 MHz FM
JAS-2 20 Sep 09:14:42 09:18:16 17° 301° (WNW) 09:22:04 435.800 - 435.900 CW/SSB, 435.910 FM
ISS 20 Sep 09:42:51 09:46:06 52° 218° (SW) 09:49:20 145.800 FM
UOSAT-12 20 Sep 09:46:55 09:51:35 62° 240° (WSW) 09:56:10 437.025 FM, 437.400 FM
RS-15 20 Sep 09:57:51 10:06:16 24° 4° (N) 10:14:47 29.354 - 29.394 USB, Beacon 29.352 USB
MaSat-1 20 Sep 10:04:09 10:08:38 32° 306° (NW) 10:13:00 437.345 MHz
HO-68 20 Sep 10:21:03 10:28:11 63° 103° (ESE) 10:35:17 435.675 MHz FM
FUNcube-1 20 Sep 10:36:18 10:38:54 15° 90° (E) 10:41:29 145.950 - 145.970 MHz USB
Oscar 11 20 Sep 10:43:30 10:47:35 38° 98° (E) 10:51:37 145.825 FM, Beacon 2401.500 USB
UKube-1 20 Sep 11:00:43 11:05:06 79° 103° (ESE) 11:09:27 145.840 MHz, 145.915 MHz
PCSat 20 Sep 11:37:20 11:40:54 18° 105° (ESE) 11:44:30 145.825 MHz
HO-68 20 Sep 12:09:31 12:15:24 29° 302° (WNW) 12:21:18 435.675 MHz FM
FUNcube-1 20 Sep 12:11:07 12:15:41 60° 287° (WNW) 12:20:11 145.950 - 145.970 MHz USB
RS-15 20 Sep 12:12:20 12:22:39 42° 37° (NE) 12:33:15 29.354 - 29.394 USB, Beacon 29.352 USB
Oscar 11 20 Sep 12:20:15 12:23:31 21° 295° (WNW) 12:26:46 145.825 FM, Beacon 2401.500 USB
UKube-1 20 Sep 12:39:07 12:40:40 12° 300° (WNW) 12:42:12 145.840 MHz, 145.915 MHz
JAS-1B 20 Sep 12:40:07 12:44:49 17° 56° (ENE) 12:49:07 435.800 - 435.900 CW/SSB
Oscar 19 20 Sep 12:47:10 12:50:46 19° 61° (ENE) 12:54:23 437.125 CW, 437.150 USB
Sapphire 20 Sep 12:51:24 12:56:46 71° 117° (ESE) 13:02:11 437.095 MHz 1200 baud AX-25 AFSK
AO-27 20 Sep 13:08:27 13:10:58 14° 58° (ENE) 13:13:29 436.795 MHz FM
PCSat 20 Sep 13:18:22 13:23:45 67° 303° (WNW) 13:29:11 145.825 MHz
Oscar 16 20 Sep 13:24:35 13:29:25 41° 69° (ENE) 13:34:17 437.025 USB, Beacon 2401.1428
AO-Echo 20 Sep 13:32:32 13:36:06 22° 64° (ENE) 13:39:39 ?
Gurwin Techsat 1B 20 Sep 14:04:05 14:07:57 21° 62° (ENE) 14:11:49 435.225 FM
ITAMSAT 1 20 Sep 14:09:39 14:14:32 45° 69° (ENE) 14:19:27 435.822 SSB
Uribyol 2 20 Sep 14:13:30 14:18:30 52° 70° (ENE) 14:23:32 436.500 FM
Oscar 19 20 Sep 14:24:31 14:29:38 61° 259° (W) 14:34:48 437.125 CW, 437.150 USB
RS-15 20 Sep 14:24:50 14:35:52 72° 242° (WSW) 14:47:21 29.354 - 29.394 USB, Beacon 29.352 USB
JAS-1B 20 Sep 14:26:06 14:34:39 79° 73° (ENE) 14:41:45 435.800 - 435.900 CW/SSB
Sapphire 20 Sep 14:36:34 14:40:44 22° 317° (NW) 14:44:56 437.095 MHz 1200 baud AX-25 AFSK
TMSAT-1 20 Sep 14:39:40 14:44:15 31° 66° (ENE) 14:48:51 436.925 FM
AO-27 20 Sep 14:44:34 14:49:44 88° 256° (WSW) 14:54:57 436.795 MHz FM
Oscar 16 20 Sep 15:04:35 15:08:53 26° 266° (W) 15:13:14 437.025 USB, Beacon 2401.1428
PCSat 20 Sep 15:05:13 15:08:13 15° 324° (NW) 15:11:14 145.825 MHz
AO-Echo 20 Sep 15:10:07 15:14:37 43° 261° (W) 15:19:06 ?
AO-7 20 Sep 15:31:04 15:38:29 38° 58° (ENE) 15:45:54 29.400 - 29.500 MHz
Gurwin Techsat 1B 20 Sep 15:42:17 15:47:29 57° 259° (W) 15:52:44 435.225 FM
ITAMSAT 1 20 Sep 15:50:08 15:54:13 24° 266° (W) 15:58:21 435.822 SSB
Uribyol 2 20 Sep 15:54:28 15:58:16 21° 268° (W) 16:02:06 436.500 FM
TMSAT-1 20 Sep 16:19:14 16:24:04 36° 263° (W) 16:28:56 436.925 FM
JAS-1B 20 Sep 16:19:33 16:25:39 22° 268° (W) 16:31:07 435.800 - 435.900 CW/SSB
Uosat F 20 Sep 16:20:30 16:25:15 46° 70° (ENE) 16:30:02 435.120 FM
AO-27 20 Sep 16:28:54 16:29:59 11° 273° (W) 16:31:05 436.795 MHz FM
RS-15 20 Sep 16:40:07 16:46:11 16° 263° (W) 16:52:24 29.354 - 29.394 USB, Beacon 29.352 USB
Saudisat 1A 20 Sep 16:42:55 16:45:52 18° 111° (ESE) 16:48:49 436.775 MHz
MaSat-1 20 Sep 16:44:58 16:45:30 10° 40° (NE) 16:46:02 437.345 MHz
AO-7 20 Sep 17:22:56 17:31:00 54° 258° (WSW) 17:39:07 29.400 - 29.500 MHz
OPAL 20 Sep 17:24:37 17:28:47 24° 96° (E) 17:32:52 ?
JAS-2 20 Sep 17:42:35 17:47:25 39° 68° (ENE) 17:52:14 435.800 - 435.900 CW/SSB, 435.910 FM
Uosat F 20 Sep 18:00:28 18:04:16 22° 267° (W) 18:08:05 435.120 FM
MaSat-1 20 Sep 18:19:11 18:23:04 90° 69° (ENE) 18:26:21 437.345 MHz
Saudisat 1A 20 Sep 18:20:44 18:25:02 54° 308° (NW) 18:29:23 436.775 MHz
Hamsat 20 Sep 18:26:20 18:30:42 90° 76° (ENE) 18:35:05 145.90 MHz
KITSAT 1 20 Sep 18:57:27 19:04:17 31° 107° (ESE) 19:11:06 435.175 FM
OPAL 20 Sep 19:02:56 19:07:50 45° 293° (WNW) 19:12:40 ?
HO-68 20 Sep 19:09:16 19:11:19 11° 46° (NE) 19:13:22 435.675 MHz FM
SO-67 20 Sep 19:14:04 19:17:17 37° 73° (ENE) 19:20:31 435.3500 MHz FM
JAS-2 20 Sep 19:28:28 19:32:43 25° 266° (W) 19:36:57 435.800 - 435.900 CW/SSB, 435.910 FM
STRAND 1 20 Sep 19:45:23 19:50:11 39° 98° (E) 19:54:59 ?
Sapphire 20 Sep 19:56:07 19:59:18 16° 37° (NE) 20:02:29 437.095 MHz 1200 baud AX-25 AFSK
Saudisat 1A 20 Sep 20:04:16 20:05:37 11° 329° (NNW) 20:06:58 436.775 MHz
PCSat 20 Sep 20:22:27 20:26:45 23° 43° (NE) 20:31:02 145.825 MHz
SO-67 20 Sep 20:48:52 20:50:29 13° 269° (W) 20:52:07 435.3500 MHz FM
HO-68 20 Sep 20:50:35 20:57:26 53° 66° (ENE) 21:04:20 435.675 MHz FM
KITSAT 1 20 Sep 20:51:08 20:59:09 64° 307° (NW) 21:07:13 435.175 FM
STRAND 1 20 Sep 21:24:54 21:29:12 28° 295° (WNW) 21:33:30 ?
FUNcube-1 20 Sep 21:34:27 21:36:51 15° 61° (ENE) 21:39:18 145.950 - 145.970 MHz USB
Sapphire 20 Sep 21:38:17 21:43:44 72° 58° (ENE) 21:49:08 437.095 MHz 1200 baud AX-25 AFSK
Oscar 11 20 Sep 21:39:36 21:43:34 35° 70° (ENE) 21:47:34 145.825 FM, Beacon 2401.500 USB
UKube-1 20 Sep 21:57:07 22:01:27 79° 75° (ENE) 22:05:48 145.840 MHz, 145.915 MHz
PCSat 20 Sep 22:05:15 22:10:39 66° 243° (WSW) 22:16:00 145.825 MHz
SO-50 20 Sep 22:28:16 22:32:29 42° 117° (ESE) 22:36:48 436.795 FM
HO-68 20 Sep 22:39:13 22:45:24 32° 265° (W) 22:51:39 435.675 MHz FM
KITSAT 1 20 Sep 22:50:21 22:56:17 22° 332° (NNW) 23:02:15 435.175 FM
FUNcube-1 20 Sep 23:08:18 23:12:41 65° 259° (W) 23:17:12 145.950 - 145.970 MHz USB
Oscar 11 20 Sep 23:16:26 23:19:51 22° 266° (W) 23:23:16 145.825 FM, Beacon 2401.500 USB
